Miscellaneous Local Product
Issued by NWS Hastings, NE

Home | Current Version | Previous Version | Graphics & Text | Print | Product List | Glossary On
Versions: 1 2 3 4 5 6 7 8 9 10 11 12 13 14 15 16 17 18 19 20 21 22 23 24 25 26 27 28 29 30 31 32 33 34 35 36 37 38 39 40 41 42 43 44 45 46 47 48 49 50
000
AXUS43 KGID 151002
MISGRI

GID CWA HOURLY WEATHER ROUNDUP
NATIONAL WEATHER SERVICE HASTINGS NE
500 AM CDT MON SEP 15 2014

NOTE: "FAIR" INDICATES FEW OR NO CLOUDS BELOW 12,000 FEET WITH NO
SIGNIFICANT WEATHER AND/OR OBSTRUCTIONS TO VISIBILITY.

...SOUTH CENTRAL NEBRASKA...

CITY           SKY/WX    TMP DP  RH WIND       PRES   REMARKS
GRAND ISLAND   PTCLDY    56  54  93 N13       30.07R
HASTINGS       MOCLDY    57  53  86 N5        30.04R
KEARNEY        MOCLDY    55  52  88 N15       30.08R
ORD            MOCLDY    49  46  90 N13       30.15R
YORK           PTCLDY    55  55 100 N3        30.05R
AURORA         LGT RAIN  56  56 100 N8        30.05R
LEXINGTON      PTCLDY    56  53  91 N13       30.10R
HOLDREGE       PTCLDY    54  52  92 N8        30.06R
HEBRON         PTCLDY    58  55  89 NE3       30.00S

...NEBRASKA PANHANDLE...

CITY           SKY/WX    TMP DP  RH WIND       PRES   REMARKS
CHADRON        CLEAR     34  33  96 W5        30.27S WCI  30
ALLIANCE       CLEAR     39  36  89 N9        30.25R WCI  33
SCOTTSBLUFF    CLEAR     38  37  97 NW6       30.27R WCI  33
SIDNEY         CLOUDY    48  42  80 N13       30.24R

...WESTERN AND NORTH CENTRAL NEBRASKA...

CITY           SKY/WX    TMP DP  RH WIND       PRES   REMARKS
VALENTINE      CLEAR     45  39  79 NW5       30.24R
AINSWORTH      CLOUDY    48  40  73 N8        30.22R
ONEILL         CLOUDY    49  46  87 N14G22    30.19R
BROKEN BOW     CLOUDY    50  45  83 N17G25    30.15R
IMPERIAL       CLOUDY    54  51  90 N15       30.15R
NORTH PLATTE   CLOUDY    50  45  83 VRB6G17   30.17R
MCCOOK         PTCLDY    55  52  89 N14       30.10R

...EASTERN NEBRASKA...

CITY           SKY/WX    TMP DP  RH WIND       PRES   REMARKS
NORFOLK        CLOUDY    53  50  89 N14       30.12R
SO SIOUX CITY  CLOUDY    54  46  74 N12       30.11R
TEKAMAH        MOCLDY    55  53  93 N6        30.07R
ALBION         CLOUDY    53  50  87 N12       30.12R
OMAHA EPPLEY   CLOUDY    62  58  86 CALM      30.04R
OFFUTT AFB     CLOUDY    60  60 100 NE3       30.03R
LINCOLN        CLOUDY    61  57  87 NE5       30.03S
NEBRASKA CITY  CLOUDY    61  57  88 NE5       30.02S
BEATRICE       MOCLDY    59  57  94 NE8       30.00R
FALLS CITY     PTCLDY    62  59  90 E6        30.00S

...NORTHERN KANSAS...

CITY           SKY/WX    TMP DP  RH WIND       PRES   REMARKS
GOODLAND       LGT RAIN  54  54 100 N16G25    30.12R VSB 3/4
HILL CITY      NOT AVBL
NORTON         SUNNY     54  52  94 N9        30.04R
PHILLIPSBURG   CLEAR     57  57 100 N10       30.02R
SMITH CENTER   CLEAR     55  55 100 N10       30.01R
BELOIT         CLEAR     61  59  94 CALM      29.97R
HAYS           PTCLDY    63  55  77 SW6       29.98R
RUSSELL        PTCLDY    63  60  90 SW10      29.97R
CONCORDIA      MOCLDY    58  58 100 SE3       29.97S
SALINA         PTCLDY    65  60  84 S10       29.98S
TOPEKA         MOCLDY    65  63  93 S3        30.02F



USA.gov is the U.S. government's official web portal to all federal, state and local government web resources and services.